STARLINK-1035

Last updated on Dec. 12, 2019, 12:02 a.m. UTC

1 44740U 19074AD  19345.58335648  .00065755  00000-0  46945-3 0  9993
2 44740  53.0094  21.5520 0002477 355.8648  39.6436 15.73183902  4730
UTC
Height (km)
Latitude
Longitude
Inclination
Orbital Period
UTC large
Height (km)
Speed (km/s)
/
Latitude / Longitude
Inclination (degrees)
Orbital Period (minutes)
Azimuth
Elevation
Range (km)
Doppler Factor
iOS Compass Heading
iOS Angle

Next 30 passes for location: Hong Kong

Rise time Rise Azimuth (degrees) Set time Set Azimuth (degrees) Duration Max altitude (degrees)

No matching passes for this satellites